Home   Weather   Dover   Past weeks
Flag for United Kingdom

Past Weather in Dover, England, United Kingdom — Yesterday and Last 2 Weeks

Now
50 °F

Cool.


Feels Like: 46 °F
Forecast: 56 / 53 °F
Wind: 12 mph from Northwest

Location: Langdon Bay

Current Time: Oct 20, 2019 at 1:56:51 am

Latest Report: Oct 20, 2019 at 12:00 am


Visibility: N/A

Pressure: 29.70 "Hg

Humidity: 83%

Dew Point: 45 °F

Location of DoverLocation

Past Weather in Dover — Graph

°F

Dover Temperature Yesterday

Maximum temperature yesterday: 58 °F (at 1:00 pm)
Minimum temperature yesterday: 50 °F (at 4:00 am)
Average temperature yesterday: 53 °F

High & Low Weather Summary for the Past Weeks

 TemperatureHumidityPressure
High63 °F (Oct 14, 6:00 pm)100% (Oct 6, 6:00 am)30.04 "Hg (Oct 6, 6:00 am)
Low47 °F (Oct 10, 5:00 am)56% (Oct 9, 4:00 pm)29.47 "Hg (Oct 18, 7:00 am)
Average55 °F89%29.75 "Hg
* Reported Oct 5 12:00 am — Oct 20 12:00 am, Dover. Weather by CustomWeather, © 2019

Note: Actual official high and low records may vary slightly from our data, if they occured in-between our weather recording intervals... More about our weather records

Advertising

Dover Weather History for the Previous 24 Hours

Scroll right to see more
 ConditionsComfort  
Time TempWeatherWind HumidityBarometerVisibility
12:00 am
Sun, Oct 20
50 °FCool.12 mph83%29.70 "HgN/A
11:00 pm
Sat, Oct 19
50 °FCool.9 mph82%29.69 "HgN/A
10:00 pm51 °FCool.8 mph82%29.68 "HgN/A
9:00 pm51 °FCool.12 mph83%29.66 "HgN/A
8:00 pm52 °FCool.12 mph80%29.65 "HgN/A
7:00 pm53 °FCool.13 mph77%29.64 "HgN/A
6:00 pm54 °FCool.13 mph75%29.62 "HgN/A
5:00 pm56 °FCool.17 mph70%29.60 "HgN/A
4:00 pm57 °FCool.12 mph78%29.59 "HgN/A
3:00 pm58 °FCool.10 mph78%29.58 "HgN/A
2:00 pm55 °FCool.14 mph83%29.57 "HgN/A
1:00 pm58 °FCool.13 mph77%29.57 "HgN/A
12:00 pm56 °FCool.16 mph84%29.57 "HgN/A
11:00 am53 °FCool.9 mph91%29.57 "HgN/A
10:00 am53 °FCool.9 mph89%29.57 "HgN/A
9:00 am52 °FCool.18 mph89%29.56 "HgN/A
8:00 am51 °FCool.16 mph92%29.54 "HgN/A
7:00 am51 °FCool.13 mph89%29.54 "HgN/A
6:00 am51 °FCool.15 mph86%29.53 "HgN/A
5:00 am52 °FCool.16 mph89%29.54 "HgN/A
4:00 am50 °FCool.13 mph94%29.54 "HgN/A
3:00 am51 °FCool.14 mph93%29.56 "HgN/A
2:00 am56 °FCool.16 mph81%29.55 "HgN/A
1:00 am56 °FCool.20 mph79%29.56 "HgN/A
Weather by CustomWeather, © 2019

See weather overview